カタログに戻る

ATLAS 5 CENTAUR DEB *

運用中HEO
NORAD 43950·DEBRIS·🇺🇸 United States

打ち上げ Sep 17, 2014 から Cape Canaveral Space Force Station

Loading…

次のパス (今後24時間)

TLE

最新Source: Space-Track

元期: Sep 8, 2026, 23:46 UTC

1 43950U 14055D   26251.99040769 -.00000343  00000-0  00000-0 0  9997
2 43950  22.1321  87.8837 5187308 276.6396  29.3759  1.95805637 57322

AllMySatでATLAS 5 CENTAUR DEB *をリアルタイム追跡

Download on the App Store